Wetterdaten: Samstag, 14.05.2016
Datum Zeit Auen-Temp. Temp gefhlt Luftfeuchte Luftdruck Regen Wind Richtung Richtung Sonnenschein Taupunkt Windben
14.05.2016 00:00 8,8 C 8,7 C 90 % 1004,2 hPa 0,0 mm 4,5 km/h (1 Bft) SW 225 0 min 7,3 C 10,7 km/h (2 Bft)
14.05.2016 00:05 8,8 C 8,7 C 90 % 1004,2 hPa 0,0 mm 2,1 km/h (1 Bft) NW 315 0 min 7,3 C 3,9 km/h (1 Bft)
14.05.2016 00:10 8,8 C 8,7 C 90 % 1004,2 hPa 0,0 mm 3,6 km/h (1 Bft) W-NW 292 0 min 7,3 C 5,4 km/h (1 Bft)
14.05.2016 00:15 8,7 C 8,6 C 90 % 1004,7 hPa 0,7 mm 2,4 km/h (1 Bft) W 270 0 min 7,2 C 7,5 km/h (2 Bft)
14.05.2016 00:20 8,7 C 8,6 C 90 % 1004,7 hPa 0,0 mm 0,6 km/h (0 Bft) W 270 0 min 7,2 C 3,0 km/h (1 Bft)
14.05.2016 00:25 8,7 C 8,6 C 90 % 1004,7 hPa 0,0 mm 0,0 km/h (0 Bft) W-SW 247 0 min 7,2 C 0,0 km/h (0 Bft)
14.05.2016 00:30 8,7 C 8,6 C 90 % 1004,7 hPa 0,0 mm 0,6 km/h (0 Bft) SW 225 0 min 7,2 C 0,0 km/h (0 Bft)
14.05.2016 00:35 8,7 C 8,6 C 90 % 1004,8 hPa 0,0 mm 0,3 km/h (0 Bft) W-SW 247 0 min 7,2 C 0,0 km/h (0 Bft)
14.05.2016 00:40 8,7 C 8,6 C 90 % 1004,8 hPa 0,0 mm 0,0 km/h (0 Bft) S 180 0 min 7,2 C 0,0 km/h (0 Bft)
14.05.2016 00:45 8,7 C 8,6 C 90 % 1004,8 hPa 0,0 mm 0,0 km/h (0 Bft) W-SW 247 0 min 7,2 C 0,0 km/h (0 Bft)
14.05.2016 00:50 8,7 C 8,6 C 90 % 1004,8 hPa 0,7 mm 0,0 km/h (0 Bft) W-SW 247 0 min 7,2 C 0,0 km/h (0 Bft)
14.05.2016 00:55 8,8 C 8,7 C 90 % 1004,7 hPa 0,0 mm 0,9 km/h (0 Bft) SW 225 0 min 7,3 C 0,0 km/h (0 Bft)
14.05.2016 01:00 8,8 C 8,7 C 90 % 1004,7 hPa 0,0 mm 1,5 km/h (1 Bft) S-SW 202 0 min 7,3 C 4,2 km/h (1 Bft)
14.05.2016 01:05 8,7 C 8,6 C 90 % 1004,7 hPa 0,0 mm 0,6 km/h (0 Bft) S 180 0 min 7,2 C 5,7 km/h (1 Bft)
14.05.2016 01:10 8,7 C 8,6 C 90 % 1004,7 hPa 0,0 mm 0,3 km/h (0 Bft) S 180 0 min 7,2 C 0,0 km/h (0 Bft)
14.05.2016 01:15 8,8 C 8,7 C 90 % 1004,9 hPa 0,0 mm 0,0 km/h (0 Bft) S 180 0 min 7,3 C 0,0 km/h (0 Bft)
14.05.2016 01:17 8,7 C 8,6 C 90 % 1004,9 hPa 0,0 mm 0,0 km/h (0 Bft) W-SW 247 0 min 7,2 C 0,0 km/h (0 Bft)
14.05.2016 01:21 8,7 C 8,6 C 90 % 1004,9 hPa 0,0 mm 0,0 km/h (0 Bft) W-SW 247 0 min 7,2 C 0,0 km/h (0 Bft)
14.05.2016 01:25 8,7 C 8,6 C 90 % 1004,9 hPa 0,0 mm 2,1 km/h (1 Bft) S-SW 202 0 min 7,2 C 10,4 km/h (2 Bft)
14.05.2016 01:30 8,8 C 8,7 C 90 % 1004,9 hPa 0,0 mm 4,8 km/h (1 Bft) SW 225 0 min 7,3 C 10,7 km/h (2 Bft)
14.05.2016 01:35 8,7 C 8,5 C 90 % 1004,6 hPa 0,0 mm 8,6 km/h (2 Bft) SW 225 0 min 7,2 C 14,6 km/h (3 Bft)
14.05.2016 01:40 8,7 C 8,6 C 90 % 1004,6 hPa 0,0 mm 7,5 km/h (2 Bft) S 180 0 min 7,2 C 6,6 km/h (2 Bft)
14.05.2016 01:45 8,7 C 8,6 C 90 % 1004,6 hPa 0,0 mm 4,8 km/h (1 Bft) SW 225 0 min 7,2 C 5,7 km/h (1 Bft)
14.05.2016 01:50 8,7 C 8,6 C 90 % 1004,6 hPa 0,0 mm 3,3 km/h (1 Bft) W 270 0 min 7,2 C 3,3 km/h (1 Bft)
14.05.2016 01:55 8,6 C 8,5 C 90 % 1004,3 hPa 0,0 mm 4,5 km/h (1 Bft) N 360 0 min 7,1 C 11,9 km/h (2 Bft)
14.05.2016 02:00 8,6 C 8,5 C 90 % 1004,3 hPa 0,0 mm 5,1 km/h (1 Bft) SW 225 0 min 7,1 C 9,5 km/h (2 Bft)
14.05.2016 02:05 8,6 C 8,5 C 90 % 1004,3 hPa 0,0 mm 6,9 km/h (2 Bft) SW 225 0 min 7,1 C 16,1 km/h (3 Bft)
14.05.2016 02:10 8,6 C 8,4 C 90 % 1004,3 hPa 0,0 mm 7,7 km/h (2 Bft) SW 225 0 min 7,1 C 11,0 km/h (2 Bft)
14.05.2016 02:15 8,6 C 8,5 C 90 % 1004,3 hPa 0,0 mm 4,8 km/h (1 Bft) W 270 0 min 7,1 C 0,0 km/h (0 Bft)
14.05.2016 02:20 8,5 C 8,4 C 90 % 1004,3 hPa 0,0 mm 2,1 km/h (1 Bft) W 270 0 min 7,0 C 0,0 km/h (0 Bft)
14.05.2016 02:25 8,5 C 8,4 C 90 % 1004,3 hPa 0,0 mm 2,1 km/h (1 Bft) W-SW 247 0 min 7,0 C 6,9 km/h (2 Bft)
14.05.2016 02:30 8,6 C 8,5 C 90 % 1004,3 hPa 0,0 mm 4,2 km/h (1 Bft) S-SW 202 0 min 7,1 C 5,1 km/h (1 Bft)
14.05.2016 02:35 8,6 C 8,5 C 90 % 1004,3 hPa 0,0 mm 6,9 km/h (2 Bft) W-SW 247 0 min 7,1 C 7,7 km/h (2 Bft)
14.05.2016 02:40 8,6 C 8,5 C 90 % 1004,3 hPa 0,0 mm 5,4 km/h (1 Bft) N 360 0 min 7,1 C 0,0 km/h (0 Bft)
14.05.2016 02:45 8,5 C 8,4 C 90 % 1004,3 hPa 0,0 mm 1,8 km/h (1 Bft) SW 225 0 min 7,0 C 6,6 km/h (2 Bft)
14.05.2016 02:50 8,5 C 8,4 C 90 % 1004,3 hPa 0,0 mm 1,5 km/h (1 Bft) W-SW 247 0 min 7,0 C 3,9 km/h (1 Bft)
14.05.2016 02:55 8,5 C 8,4 C 90 % 1004,3 hPa 0,0 mm 0,9 km/h (0 Bft) W-SW 247 0 min 7,0 C 0,0 km/h (0 Bft)
14.05.2016 03:00 8,4 C 8,3 C 90 % 1004,3 hPa 0,0 mm 0,3 km/h (0 Bft) SW 225 0 min 6,9 C 3,6 km/h (1 Bft)
14.05.2016 03:05 8,4 C 8,3 C 90 % 1004,3 hPa 0,0 mm 1,2 km/h (1 Bft) O-NO 67 0 min 6,9 C 0,0 km/h (0 Bft)
14.05.2016 03:10 8,4 C 8,3 C 90 % 1004,3 hPa 0,0 mm 0,9 km/h (0 Bft) O-SO 112 0 min 6,9 C 0,0 km/h (0 Bft)
14.05.2016 03:15 8,4 C 8,3 C 90 % 1004,4 hPa 0,0 mm 0,0 km/h (0 Bft) O 90 0 min 6,9 C 0,0 km/h (0 Bft)
14.05.2016 03:20 8,4 C 8,3 C 90 % 1004,4 hPa 0,0 mm 0,0 km/h (0 Bft) O-NO 67 0 min 6,9 C 0,0 km/h (0 Bft)
14.05.2016 03:25 8,4 C 8,3 C 90 % 1004,4 hPa 0,0 mm 0,0 km/h (0 Bft) S-SO 157 0 min 6,9 C 0,0 km/h (0 Bft)
14.05.2016 03:30 8,4 C 8,3 C 90 % 1004,4 hPa 0,0 mm 0,0 km/h (0 Bft) O-NO 67 0 min 6,9 C 0,0 km/h (0 Bft)
14.05.2016 03:35 8,4 C 8,3 C 90 % 1004,5 hPa 0,0 mm 0,0 km/h (0 Bft) W-NW 292 0 min 6,9 C 0,0 km/h (0 Bft)
14.05.2016 03:40 8,4 C 8,3 C 90 % 1004,5 hPa 0,0 mm 0,0 km/h (0 Bft) W-SW 247 0 min 6,9 C 0,0 km/h (0 Bft)
14.05.2016 03:45 8,4 C 8,3 C 90 % 1004,5 hPa 0,0 mm 0,0 km/h (0 Bft) N-NO 22 0 min 6,9 C 0,0 km/h (0 Bft)
14.05.2016 03:50 8,4 C 8,3 C 90 % 1004,5 hPa 0,0 mm 0,3 km/h (0 Bft) SW 225 0 min 6,9 C 5,4 km/h (1 Bft)
14.05.2016 03:55 8,4 C 8,3 C 90 % 1004,8 hPa 0,0 mm 3,9 km/h (1 Bft) W-SW 247 0 min 6,9 C 4,8 km/h (1 Bft)
14.05.2016 04:00 8,4 C 8,3 C 90 % 1004,8 hPa 0,0 mm 5,1 km/h (1 Bft) W-SW 247 0 min 6,9 C 3,6 km/h (1 Bft)
14.05.2016 04:05 8,4 C 8,3 C 90 % 1004,8 hPa 0,0 mm 2,7 km/h (1 Bft) W 270 0 min 6,9 C 4,8 km/h (1 Bft)
14.05.2016 04:10 8,4 C 8,3 C 90 % 1004,8 hPa 0,0 mm 2,1 km/h (1 Bft) SW 225 0 min 6,9 C 5,1 km/h (1 Bft)
14.05.2016 04:15 8,4 C 8,3 C 90 % 1004,8 hPa 0,0 mm 2,1 km/h (1 Bft) SW 225 0 min 6,9 C 3,3 km/h (1 Bft)
14.05.2016 04:20 8,4 C 8,3 C 90 % 1004,8 hPa 0,0 mm 2,1 km/h (1 Bft) W-SW 247 0 min 6,9 C 4,2 km/h (1 Bft)
14.05.2016 04:22 8,4 C 8,3 C 90 % 1004,8 hPa 0,0 mm 2,1 km/h (1 Bft) W-SW 247 0 min 6,9 C 4,2 km/h (1 Bft)
14.05.2016 04:25 8,4 C 8,3 C 90 % 1004,8 hPa 0,0 mm 3,6 km/h (1 Bft) SW 225 0 min 6,9 C 5,1 km/h (1 Bft)
14.05.2016 04:30 8,4 C 8,3 C 90 % 1004,8 hPa 0,7 mm 3,3 km/h (1 Bft) SW 225 0 min 6,9 C 3,9 km/h (1 Bft)
14.05.2016 04:35 8,4 C 8,3 C 90 % 1004,6 hPa 0,0 mm 1,2 km/h (1 Bft) W-NW 292 0 min 6,9 C 3,0 km/h (1 Bft)
14.05.2016 04:40 8,4 C 8,3 C 90 % 1004,6 hPa 0,0 mm 0,9 km/h (0 Bft) SW 225 0 min 6,9 C 7,2 km/h (2 Bft)
14.05.2016 04:45 8,4 C 8,3 C 90 % 1004,6 hPa 0,7 mm 3,0 km/h (1 Bft) W-SW 247 0 min 6,9 C 4,5 km/h (1 Bft)
14.05.2016 04:50 8,4 C 8,3 C 90 % 1004,6 hPa 0,0 mm 4,2 km/h (1 Bft) S 180 0 min 6,9 C 7,5 km/h (2 Bft)
14.05.2016 04:55 8,5 C 8,4 C 90 % 1004,9 hPa 0,0 mm 3,0 km/h (1 Bft) S 180 0 min 7,0 C 5,4 km/h (1 Bft)
14.05.2016 05:00 8,4 C 8,3 C 90 % 1004,9 hPa 0,0 mm 1,8 km/h (1 Bft) S 180 0 min 6,9 C 0,0 km/h (0 Bft)
14.05.2016 05:05 8,5 C 8,4 C 90 % 1004,9 hPa 0,0 mm 3,9 km/h (1 Bft) SW 225 0 min 7,0 C 11,0 km/h (2 Bft)
14.05.2016 05:10 8,5 C 8,4 C 90 % 1004,9 hPa 0,7 mm 5,7 km/h (1 Bft) S 180 0 min 7,0 C 6,0 km/h (2 Bft)
14.05.2016 05:15 8,5 C 8,4 C 91 % 1004,7 hPa 0,0 mm 5,7 km/h (1 Bft) S 180 0 min 7,1 C 4,5 km/h (1 Bft)
14.05.2016 05:20 8,5 C 8,4 C 91 % 1004,7 hPa 0,0 mm 5,1 km/h (1 Bft) S 180 0 min 7,1 C 4,5 km/h (1 Bft)
14.05.2016 05:25 8,5 C 8,4 C 91 % 1004,7 hPa 0,0 mm 5,4 km/h (1 Bft) S-SO 157 0 min 7,1 C 9,8 km/h (2 Bft)
14.05.2016 05:30 8,4 C 8,3 C 91 % 1004,7 hPa 0,0 mm 5,1 km/h (1 Bft) S-SW 202 0 min 7,0 C 3,0 km/h (1 Bft)
14.05.2016 05:35 8,5 C 8,4 C 91 % 1004,9 hPa 0,0 mm 4,5 km/h (1 Bft) N-NO 22 0 min 7,1 C 6,3 km/h (2 Bft)
14.05.2016 05:40 8,5 C 8,4 C 91 % 1004,9 hPa 0,7 mm 4,5 km/h (1 Bft) S-SW 202 0 min 7,1 C 4,5 km/h (1 Bft)
14.05.2016 05:45 8,5 C 8,4 C 91 % 1004,9 hPa 0,0 mm 5,7 km/h (1 Bft) W-SW 247 0 min 7,1 C 4,8 km/h (1 Bft)
14.05.2016 05:50 8,6 C 8,5 C 91 % 1004,9 hPa 0,0 mm 6,3 km/h (2 Bft) S-SO 157 0 min 7,2 C 9,2 km/h (2 Bft)
14.05.2016 05:55 8,6 C 8,5 C 91 % 1005,2 hPa 0,0 mm 6,6 km/h (2 Bft) SW 225 0 min 7,2 C 10,7 km/h (2 Bft)
14.05.2016 06:00 8,6 C 8,5 C 91 % 1005,2 hPa 0,7 mm 7,2 km/h (2 Bft) SW 225 0 min 7,2 C 11,3 km/h (2 Bft)
14.05.2016 06:05 8,6 C 8,5 C 91 % 1005,2 hPa 0,0 mm 6,3 km/h (2 Bft) S 180 0 min 7,2 C 0,0 km/h (0 Bft)
14.05.2016 06:10 8,6 C 8,5 C 91 % 1005,2 hPa 0,0 mm 4,8 km/h (1 Bft) S-SO 157 0 min 7,2 C 0,0 km/h (0 Bft)
14.05.2016 06:15 8,6 C 8,5 C 91 % 1005,1 hPa 0,0 mm 3,6 km/h (1 Bft) SW 225 0 min 7,2 C 3,9 km/h (1 Bft)
14.05.2016 06:20 8,6 C 8,5 C 91 % 1005,1 hPa 0,0 mm 3,0 km/h (1 Bft) NO 45 0 min 7,2 C 4,8 km/h (1 Bft)
14.05.2016 06:25 8,6 C 8,5 C 91 % 1005,1 hPa 0,7 mm 3,6 km/h (1 Bft) S-SW 202 0 min 7,2 C 6,6 km/h (2 Bft)
14.05.2016 06:30 8,6 C 8,5 C 91 % 1005,1 hPa 0,0 mm 3,9 km/h (1 Bft) S 180 0 min 7,2 C 4,2 km/h (1 Bft)
14.05.2016 06:35 8,6 C 8,5 C 91 % 1005,4 hPa 0,0 mm 1,8 km/h (1 Bft) S 180 0 min 7,2 C 0,0 km/h (0 Bft)
14.05.2016 06:40 8,6 C 8,5 C 91 % 1005,4 hPa 0,0 mm 0,3 km/h (0 Bft) SW 225 0 min 7,2 C 0,0 km/h (0 Bft)
14.05.2016 06:45 8,6 C 8,5 C 91 % 1005,4 hPa 0,0 mm 0,3 km/h (0 Bft) SW 225 0 min 7,2 C 4,5 km/h (1 Bft)
14.05.2016 06:50 8,7 C 8,6 C 91 % 1005,4 hPa 0,0 mm 0,6 km/h (0 Bft) NW 315 0 min 7,3 C 0,0 km/h (0 Bft)
14.05.2016 06:55 8,7 C 8,6 C 91 % 1005,6 hPa 0,0 mm 0,6 km/h (0 Bft) W 270 0 min 7,3 C 0,0 km/h (0 Bft)
14.05.2016 07:00 8,7 C 8,6 C 91 % 1005,6 hPa 0,0 mm 0,6 km/h (0 Bft) S 180 0 min 7,3 C 0,0 km/h (0 Bft)
14.05.2016 07:05 8,7 C 8,6 C 91 % 1005,6 hPa 0,0 mm 0,3 km/h (0 Bft) S 180 0 min 7,3 C 4,8 km/h (1 Bft)
14.05.2016 07:10 8,7 C 8,6 C 91 % 1005,6 hPa 0,0 mm 0,6 km/h (0 Bft) W-SW 247 0 min 7,3 C 0,0 km/h (0 Bft)
14.05.2016 07:15 8,7 C 8,6 C 91 % 1005,8 hPa 0,0 mm 2,1 km/h (1 Bft) S 180 0 min 7,3 C 5,4 km/h (1 Bft)
14.05.2016 07:20 8,7 C 8,6 C 91 % 1005,8 hPa 0,0 mm 3,6 km/h (1 Bft) SW 225 0 min 7,3 C 5,7 km/h (1 Bft)
14.05.2016 07:22 8,7 C 8,6 C 91 % 1005,8 hPa 0,0 mm 5,4 km/h (1 Bft) S-SW 202 0 min 7,3 C 8,3 km/h (2 Bft)
14.05.2016 07:23 8,7 C 8,6 C 91 % 1005,8 hPa 0,0 mm 5,4 km/h (1 Bft) S-SW 202 0 min 7,3 C 8,3 km/h (2 Bft)
14.05.2016 07:25 8,7 C 8,6 C 91 % 1005,8 hPa 0,0 mm 5,4 km/h (1 Bft) S-SW 202 0 min 7,3 C 8,3 km/h (2 Bft)
14.05.2016 07:30 8,7 C 8,6 C 91 % 1005,8 hPa 0,7 mm 6,0 km/h (2 Bft) S-SW 202 0 min 7,3 C 10,1 km/h (2 Bft)
14.05.2016 07:35 8,8 C 8,7 C 91 % 1005,9 hPa 0,0 mm 5,1 km/h (1 Bft) S-SW 202 0 min 7,4 C 5,4 km/h (1 Bft)
14.05.2016 07:40 8,8 C 8,7 C 91 % 1005,9 hPa 0,0 mm 3,9 km/h (1 Bft) SW 225 0 min 7,4 C 0,0 km/h (0 Bft)
14.05.2016 07:45 8,8 C 8,7 C 91 % 1005,9 hPa 0,0 mm 3,3 km/h (1 Bft) S-SW 202 0 min 7,4 C 7,7 km/h (2 Bft)
14.05.2016 07:50 8,8 C 8,7 C 91 % 1005,9 hPa 0,0 mm 4,5 km/h (1 Bft) S-SO 157 0 min 7,4 C 7,5 km/h (2 Bft)
14.05.2016 07:55 8,9 C 8,8 C 91 % 1006,2 hPa 0,0 mm 6,3 km/h (2 Bft) S 180 0 min 7,5 C 4,5 km/h (1 Bft)
14.05.2016 08:00 8,8 C 8,7 C 91 % 1006,2 hPa 0,0 mm 4,8 km/h (1 Bft) SW 225 0 min 7,4 C 0,0 km/h (0 Bft)
14.05.2016 08:05 8,9 C 8,8 C 91 % 1006,2 hPa 0,0 mm 2,4 km/h (1 Bft) W-SW 247 0 min 7,5 C 0,0 km/h (0 Bft)
14.05.2016 08:10 8,9 C 8,8 C 91 % 1006,2 hPa 0,0 mm 0,9 km/h (0 Bft) O-NO 67 0 min 7,5 C 0,0 km/h (0 Bft)
14.05.2016 08:15 8,9 C 8,8 C 91 % 1006,3 hPa 0,0 mm 0,3 km/h (0 Bft) W-SW 247 0 min 7,5 C 0,0 km/h (0 Bft)
14.05.2016 08:20 8,9 C 8,8 C 91 % 1006,3 hPa 0,0 mm 1,2 km/h (1 Bft) S 180 0 min 7,5 C 0,0 km/h (0 Bft)
14.05.2016 08:25 8,9 C 8,8 C 91 % 1006,3 hPa 0,0 mm 0,9 km/h (0 Bft) W 270 0 min 7,5 C 0,0 km/h (0 Bft)
14.05.2016 08:30 8,9 C 8,8 C 91 % 1006,3 hPa 0,0 mm 0,0 km/h (0 Bft) W-NW 292 0 min 7,5 C 0,0 km/h (0 Bft)
14.05.2016 08:35 9,0 C 8,9 C 91 % 1006,5 hPa 0,0 mm 0,0 km/h (0 Bft) S 180 0 min 7,6 C 0,0 km/h (0 Bft)
14.05.2016 08:40 9,0 C 9,0 C 90 % 1006,5 hPa 0,0 mm 0,0 km/h (0 Bft) W 270 0 min 7,4 C 0,0 km/h (0 Bft)
14.05.2016 08:45 9,1 C 9,0 C 90 % 1006,5 hPa 0,7 mm 0,6 km/h (0 Bft) W-NW 292 0 min 7,5 C 3,9 km/h (1 Bft)
14.05.2016 08:50 9,1 C 9,0 C 90 % 1006,5 hPa 0,0 mm 1,2 km/h (1 Bft) W 270 0 min 7,5 C 3,9 km/h (1 Bft)
14.05.2016 08:55 9,2 C 9,1 C 90 % 1006,9 hPa 0,0 mm 1,2 km/h (1 Bft) S 180 0 min 7,6 C 0,0 km/h (0 Bft)
14.05.2016 09:00 9,3 C 9,2 C 90 % 1006,9 hPa 0,0 mm 0,6 km/h (0 Bft) W-SW 247 0 min 7,7 C 0,0 km/h (0 Bft)
14.05.2016 09:05 9,3 C 9,3 C 90 % 1006,9 hPa 0,0 mm 0,3 km/h (0 Bft) W-SW 247 0 min 7,7 C 0,0 km/h (0 Bft)
14.05.2016 09:10 9,3 C 9,3 C 90 % 1006,9 hPa 0,0 mm 0,0 km/h (0 Bft) NW 315 0 min 7,7 C 0,0 km/h (0 Bft)
14.05.2016 09:15 9,3 C 9,2 C 90 % 1007,0 hPa 0,0 mm 1,2 km/h (1 Bft) W-NW 292 0 min 7,7 C 0,0 km/h (0 Bft)
14.05.2016 09:20 9,3 C 9,2 C 90 % 1007,0 hPa 0,0 mm 1,8 km/h (1 Bft) W-SW 247 0 min 7,7 C 0,0 km/h (0 Bft)
14.05.2016 09:25 9,1 C 9,0 C 90 % 1007,0 hPa 0,7 mm 3,0 km/h (1 Bft) N-NW 337 0 min 7,5 C 8,9 km/h (2 Bft)
14.05.2016 09:30 9,2 C 9,1 C 90 % 1007,0 hPa 0,0 mm 3,3 km/h (1 Bft) W 270 0 min 7,6 C 0,0 km/h (0 Bft)
14.05.2016 09:35 9,4 C 9,2 C 90 % 1007,1 hPa 0,0 mm 1,5 km/h (1 Bft) SW 225 0 min 7,8 C 0,0 km/h (0 Bft)
14.05.2016 09:40 9,4 C 9,3 C 90 % 1007,1 hPa 0,0 mm 0,3 km/h (0 Bft) S-SO 157 0 min 7,8 C 0,0 km/h (0 Bft)
14.05.2016 09:45 9,4 C 9,3 C 90 % 1007,1 hPa 0,7 mm 0,0 km/h (0 Bft) SW 225 0 min 7,8 C 0,0 km/h (0 Bft)
14.05.2016 09:50 9,4 C 9,4 C 89 % 1007,1 hPa 0,0 mm 0,0 km/h (0 Bft) SW 225 0 min 7,7 C 0,0 km/h (0 Bft)
14.05.2016 09:55 9,4 C 9,4 C 89 % 1007,5 hPa 0,0 mm 0,6 km/h (0 Bft) W 270 0 min 7,7 C 0,0 km/h (0 Bft)
14.05.2016 10:00 9,4 C 9,4 C 89 % 1007,5 hPa 0,0 mm 0,6 km/h (0 Bft) N-NW 337 0 min 7,7 C 0,0 km/h (0 Bft)
14.05.2016 10:05 9,3 C 9,2 C 89 % 1007,5 hPa 0,0 mm 0,0 km/h (0 Bft) NW 315 0 min 7,6 C 0,0 km/h (0 Bft)
14.05.2016 10:10 9,1 C 9,0 C 89 % 1007,5 hPa 0,0 mm 0,3 km/h (0 Bft) W 270 0 min 7,4 C 0,0 km/h (0 Bft)
14.05.2016 10:15 9,0 C 8,9 C 89 % 1008,1 hPa 0,0 mm 0,3 km/h (0 Bft) S-SO 157 0 min 7,3 C 0,0 km/h (0 Bft)
14.05.2016 10:20 8,9 C 8,8 C 89 % 1008,1 hPa 0,0 mm 0,3 km/h (0 Bft) S-SW 202 0 min 7,2 C 0,0 km/h (0 Bft)
14.05.2016 10:22 9,0 C 8,9 C 89 % 1008,1 hPa 0,0 mm 0,3 km/h (0 Bft) W-SW 247 0 min 7,3 C 0,0 km/h (0 Bft)
14.05.2016 10:24 9,0 C 8,9 C 89 % 1008,1 hPa 0,0 mm 0,3 km/h (0 Bft) W-SW 247 0 min 7,3 C 0,0 km/h (0 Bft)
14.05.2016 10:25 9,0 C 8,9 C 89 % 1008,1 hPa 0,0 mm 0,3 km/h (0 Bft) W-SW 247 0 min 7,3 C 0,0 km/h (0 Bft)
14.05.2016 10:30 9,1 C 9,0 C 89 % 1008,1 hPa 0,0 mm 0,0 km/h (0 Bft) W-SW 247 0 min 7,4 C 0,0 km/h (0 Bft)
14.05.2016 10:35 9,1 C 9,0 C 89 % 1008,1 hPa 0,0 mm 0,0 km/h (0 Bft) SO 135 0 min 7,4 C 0,0 km/h (0 Bft)
14.05.2016 10:40 9,2 C 9,1 C 89 % 1008,1 hPa 0,7 mm 0,0 km/h (0 Bft) NO 45 0 min 7,5 C 0,0 km/h (0 Bft)
14.05.2016 10:45 9,2 C 9,2 C 89 % 1008,1 hPa 0,0 mm 0,0 km/h (0 Bft) NW 315 0 min 7,5 C 0,0 km/h (0 Bft)
14.05.2016 10:50 9,2 C 9,2 C 89 % 1008,1 hPa 0,0 mm 0,0 km/h (0 Bft) S-SW 202 0 min 7,5 C 0,0 km/h (0 Bft)
14.05.2016 10:55 9,3 C 9,4 C 89 % 1008,0 hPa 0,0 mm 0,0 km/h (0 Bft) SW 225 0 min 7,6 C 0,0 km/h (0 Bft)
14.05.2016 11:00 9,4 C 9,5 C 89 % 1008,0 hPa 0,0 mm 0,0 km/h (0 Bft) NO 45 0 min 7,7 C 0,0 km/h (0 Bft)
14.05.2016 11:05 9,4 C 9,7 C 89 % 1008,0 hPa 0,0 mm 0,0 km/h (0 Bft) S 180 0 min 7,7 C 0,0 km/h (0 Bft)
14.05.2016 11:10 9,5 C 9,8 C 89 % 1008,0 hPa 0,0 mm 0,0 km/h (0 Bft) SW 225 0 min 7,8 C 0,0 km/h (0 Bft)
14.05.2016 11:15 9,7 C 10,0 C 89 % 1008,4 hPa 0,0 mm 0,0 km/h (0 Bft) NW 315 0 min 8,0 C 0,0 km/h (0 Bft)
14.05.2016 11:20 9,9 C 10,2 C 89 % 1008,4 hPa 0,0 mm 0,0 km/h (0 Bft) W-SW 247 0 min 8,2 C 3,9 km/h (1 Bft)
14.05.2016 11:25 9,9 C 10,4 C 89 % 1008,4 hPa 0,0 mm 0,0 km/h (0 Bft) N-NW 337 0 min 8,2 C 0,0 km/h (0 Bft)
14.05.2016 11:30 10,2 C 10,5 C 88 % 1008,4 hPa 0,0 mm 0,0 km/h (0 Bft) W-SW 247 0 min 8,3 C 0,0 km/h (0 Bft)
14.05.2016 11:35 10,6 C 11,0 C 88 % 1008,7 hPa 0,0 mm 0,0 km/h (0 Bft) S 180 0 min 8,7 C 0,0 km/h (0 Bft)
14.05.2016 11:40 10,7 C 11,3 C 88 % 1008,7 hPa 0,0 mm 0,0 km/h (0 Bft) N-NO 22 0 min 8,8 C 0,0 km/h (0 Bft)
14.05.2016 11:45 10,7 C 11,2 C 88 % 1008,7 hPa 0,0 mm 0,6 km/h (0 Bft) W-SW 247 0 min 8,8 C 6,9 km/h (2 Bft)
14.05.2016 11:50 10,4 C 10,7 C 87 % 1008,7 hPa 0,0 mm 1,5 km/h (1 Bft) NO 45 0 min 8,3 C 0,0 km/h (0 Bft)
14.05.2016 11:55 10,2 C 10,4 C 87 % 1009,0 hPa 0,0 mm 1,8 km/h (1 Bft) W-NW 292 0 min 8,1 C 4,5 km/h (1 Bft)
14.05.2016 12:00 10,3 C 10,3 C 87 % 1009,0 hPa 0,0 mm 1,5 km/h (1 Bft) W-NW 292 0 min 8,2 C 0,0 km/h (0 Bft)
14.05.2016 12:05 10,4 C 10,3 C 87 % 1009,0 hPa 0,0 mm 1,8 km/h (1 Bft) W 270 0 min 8,3 C 0,0 km/h (0 Bft)
14.05.2016 12:10 10,5 C 10,4 C 87 % 1009,0 hPa 0,0 mm 0,9 km/h (0 Bft) NW 315 0 min 8,4 C 3,6 km/h (1 Bft)
14.05.2016 12:15 10,0 C 9,9 C 86 % 1009,4 hPa 0,0 mm 3,3 km/h (1 Bft) W-SW 247 0 min 7,8 C 5,4 km/h (1 Bft)
14.05.2016 12:20 9,8 C 9,7 C 86 % 1009,4 hPa 0,0 mm 5,1 km/h (1 Bft) W-NW 292 0 min 7,6 C 10,7 km/h (2 Bft)
14.05.2016 12:25 9,0 C 8,9 C 85 % 1009,4 hPa 0,7 mm 6,9 km/h (2 Bft) NW 315 0 min 6,6 C 4,2 km/h (1 Bft)
14.05.2016 12:30 8,8 C 8,7 C 85 % 1009,4 hPa 0,0 mm 6,0 km/h (2 Bft) W-SW 247 0 min 6,4 C 0,0 km/h (0 Bft)
14.05.2016 12:35 8,7 C 8,6 C 85 % 1009,8 hPa 0,7 mm 3,0 km/h (1 Bft) W 270 0 min 6,3 C 0,0 km/h (0 Bft)
14.05.2016 12:40 9,0 C 8,9 C 85 % 1009,8 hPa 0,0 mm 2,1 km/h (1 Bft) S-SW 202 0 min 6,6 C 5,7 km/h (1 Bft)
14.05.2016 12:45 9,3 C 9,2 C 85 % 1009,8 hPa 0,0 mm 1,2 km/h (1 Bft) O-SO 112 0 min 6,9 C 0,0 km/h (0 Bft)
14.05.2016 12:50 10,1 C 10,0 C 85 % 1009,8 hPa 0,0 mm 1,2 km/h (1 Bft) NW 315 0 min 7,7 C 0,0 km/h (0 Bft)
14.05.2016 12:55 10,4 C 10,7 C 85 % 1009,9 hPa 0,0 mm 0,9 km/h (0 Bft) NW 315 0 min 8,0 C 3,6 km/h (1 Bft)
14.05.2016 13:00 10,6 C 10,9 C 85 % 1009,9 hPa 0,0 mm 3,0 km/h (1 Bft) SO 135 0 min 8,2 C 7,2 km/h (2 Bft)
14.05.2016 13:05 11,4 C 11,7 C 85 % 1009,9 hPa 0,0 mm 3,6 km/h (1 Bft) N-NO 22 0 min 9,0 C 4,2 km/h (1 Bft)
14.05.2016 13:10 11,3 C 12,1 C 85 % 1009,9 hPa 0,0 mm 3,3 km/h (1 Bft) NO 45 0 min 8,9 C 5,4 km/h (1 Bft)
14.05.2016 13:15 11,7 C 12,3 C 85 % 1009,7 hPa 0,0 mm 3,6 km/h (1 Bft) O-NO 67 0 min 9,3 C 4,2 km/h (1 Bft)
14.05.2016 13:20 12,2 C 12,7 C 85 % 1009,7 hPa 0,0 mm 3,0 km/h (1 Bft) O-SO 112 0 min 9,8 C 3,3 km/h (1 Bft)
14.05.2016 13:22 13,1 C 14,1 C 84 % 1009,7 hPa 0,0 mm 2,1 km/h (1 Bft) N-NW 337 0 min 10,5 C 0,0 km/h (0 Bft)
14.05.2016 13:25 13,1 C 14,1 C 84 % 1009,7 hPa 0,0 mm 2,1 km/h (1 Bft) N-NW 337 0 min 10,5 C 0,0 km/h (0 Bft)
14.05.2016 13:30 13,5 C 15,3 C 84 % 1009,7 hPa 0,0 mm 2,4 km/h (1 Bft) N-NW 337 0 min 10,8 C 4,8 km/h (1 Bft)
14.05.2016 13:35 13,6 C 16,2 C 84 % 1009,5 hPa 0,0 mm 3,0 km/h (1 Bft) S-SW 202 5 min 10,9 C 4,2 km/h (1 Bft)
14.05.2016 13:40 13,8 C 16,2 C 83 % 1009,5 hPa 0,0 mm 2,7 km/h (1 Bft) W-NW 292 5 min 11,0 C 7,2 km/h (2 Bft)
14.05.2016 13:45 14,0 C 16,5 C 83 % 1009,5 hPa 0,0 mm 2,7 km/h (1 Bft) O-SO 112 5 min 11,2 C 4,8 km/h (1 Bft)
14.05.2016 13:50 13,1 C 16,7 C 82 % 1009,5 hPa 0,0 mm 3,0 km/h (1 Bft) S 180 5 min 10,1 C 4,2 km/h (1 Bft)
14.05.2016 13:55 14,8 C 17,1 C 82 % 1009,2 hPa 0,0 mm 2,4 km/h (1 Bft) O-SO 112 5 min 11,8 C 3,3 km/h (1 Bft)
14.05.2016 14:00 15,4 C 18,3 C 82 % 1009,2 hPa 0,0 mm 1,8 km/h (1 Bft) N-NW 337 5 min 12,3 C 0,0 km/h (0 Bft)
14.05.2016 14:05 16,3 C 20,2 C 80 % 1009,2 hPa 0,0 mm 2,7 km/h (1 Bft) SW 225 5 min 12,8 C 4,5 km/h (1 Bft)
14.05.2016 14:10 15,7 C 20,2 C 79 % 1009,2 hPa 0,0 mm 3,3 km/h (1 Bft) S-SW 202 5 min 12,1 C 0,0 km/h (0 Bft)
14.05.2016 14:15 15,2 C 20,0 C 78 % 1009,4 hPa 0,0 mm 3,3 km/h (1 Bft) W 270 5 min 11,4 C 16,4 km/h (3 Bft)
14.05.2016 14:20 15,3 C 19,9 C 77 % 1009,4 hPa 0,0 mm 3,6 km/h (1 Bft) W 270 5 min 11,3 C 5,4 km/h (1 Bft)
14.05.2016 14:25 14,8 C 19,3 C 76 % 1009,4 hPa 0,0 mm 3,6 km/h (1 Bft) W-NW 292 5 min 10,6 C 3,6 km/h (1 Bft)
14.05.2016 14:30 14,9 C 18,9 C 75 % 1009,4 hPa 0,0 mm 2,7 km/h (1 Bft) W 270 5 min 10,5 C 4,8 km/h (1 Bft)
14.05.2016 14:35 14,4 C 18,9 C 73 % 1009,4 hPa 0,0 mm 1,5 km/h (1 Bft) SW 225 5 min 9,6 C 6,0 km/h (2 Bft)
14.05.2016 14:40 15,2 C 19,3 C 72 % 1009,4 hPa 0,0 mm 1,8 km/h (1 Bft) N-NW 337 5 min 10,2 C 7,5 km/h (2 Bft)
14.05.2016 14:45 15,8 C 19,8 C 70 % 1009,4 hPa 0,0 mm 3,0 km/h (1 Bft) O-SO 112 5 min 10,3 C 0,0 km/h (0 Bft)
14.05.2016 14:50 16,5 C 19,9 C 70 % 1009,4 hPa 0,0 mm 3,3 km/h (1 Bft) N-NO 22 5 min 11,0 C 9,8 km/h (2 Bft)
14.05.2016 14:55 15,9 C 20,5 C 68 % 1009,2 hPa 0,0 mm 3,9 km/h (1 Bft) W-SW 247 5 min 10,0 C 8,9 km/h (2 Bft)
14.05.2016 15:00 16,0 C 20,1 C 68 % 1009,2 hPa 0,0 mm 4,5 km/h (1 Bft) NW 315 5 min 10,1 C 4,5 km/h (1 Bft)
14.05.2016 15:05 15,9 C 19,9 C 66 % 1009,2 hPa 0,0 mm 6,3 km/h (2 Bft) NW 315 5 min 9,6 C 5,7 km/h (1 Bft)
14.05.2016 15:10 16,1 C 20,2 C 66 % 1009,2 hPa 0,0 mm 5,1 km/h (1 Bft) N-NW 337 5 min 9,7 C 5,4 km/h (1 Bft)
14.05.2016 15:15 16,4 C 20,2 C 64 % 1009,2 hPa 0,0 mm 1,8 km/h (1 Bft) N-NW 337 5 min 9,6 C 0,0 km/h (0 Bft)
14.05.2016 15:20 16,8 C 20,7 C 65 % 1009,2 hPa 0,0 mm 1,2 km/h (1 Bft) S 180 5 min 10,2 C 0,0 km/h (0 Bft)
14.05.2016 15:25 16,1 C 21,4 C 62 % 1009,2 hPa 0,0 mm 2,4 km/h (1 Bft) O-NO 67 5 min 8,8 C 6,0 km/h (2 Bft)
14.05.2016 15:30 16,4 C 21,2 C 64 % 1009,2 hPa 0,0 mm 3,9 km/h (1 Bft) NW 315 5 min 9,6 C 6,3 km/h (2 Bft)
14.05.2016 15:35 15,3 C 19,7 C 62 % 1009,4 hPa 0,0 mm 7,2 km/h (2 Bft) W-NW 292 5 min 8,1 C 20,9 km/h (4 Bft)
14.05.2016 15:40 15,4 C 19,1 C 63 % 1009,4 hPa 0,0 mm 7,2 km/h (2 Bft) NW 315 5 min 8,4 C 6,3 km/h (2 Bft)
14.05.2016 15:45 15,1 C 18,3 C 64 % 1009,4 hPa 0,0 mm 6,0 km/h (2 Bft) NW 315 5 min 8,3 C 18,8 km/h (3 Bft)
14.05.2016 15:50 15,0 C 17,7 C 63 % 1009,4 hPa 0,0 mm 7,2 km/h (2 Bft) W-NW 292 5 min 8,0 C 7,2 km/h (2 Bft)
14.05.2016 15:55 14,8 C 17,2 C 62 % 1009,4 hPa 0,0 mm 8,3 km/h (2 Bft) NW 315 5 min 7,6 C 14,0 km/h (3 Bft)
14.05.2016 16:00 14,7 C 16,8 C 62 % 1009,4 hPa 0,0 mm 7,7 km/h (2 Bft) S 180 0 min 7,5 C 6,0 km/h (2 Bft)
14.05.2016 16:05 14,3 C 16,4 C 63 % 1009,4 hPa 0,0 mm 8,0 km/h (2 Bft) NW 315 0 min 7,4 C 10,4 km/h (2 Bft)
14.05.2016 16:10 13,7 C 15,7 C 62 % 1009,4 hPa 0,0 mm 10,1 km/h (2 Bft) W 270 0 min 6,6 C 17,6 km/h (3 Bft)
14.05.2016 16:15 13,2 C 14,5 C 63 % 1009,5 hPa 0,0 mm 12,2 km/h (2 Bft) NW 315 0 min 6,3 C 29,5 km/h (5 Bft)
14.05.2016 16:20 13,2 C 14,2 C 63 % 1009,5 hPa 0,0 mm 11,9 km/h (2 Bft) NW 315 0 min 6,3 C 14,0 km/h (3 Bft)
14.05.2016 16:22 12,7 C 14,2 C 64 % 1009,5 hPa 0,0 mm 12,5 km/h (3 Bft) N 360 0 min 6,1 C 24,1 km/h (4 Bft)
14.05.2016 16:26 12,7 C 14,2 C 64 % 1009,5 hPa 0,0 mm 12,5 km/h (3 Bft) N 360 0 min 6,1 C 24,1 km/h (4 Bft)
14.05.2016 16:30 12,0 C 13,4 C 66 % 1009,5 hPa 0,0 mm 14,9 km/h (3 Bft) NW 315 0 min 5,8 C 15,5 km/h (3 Bft)
14.05.2016 16:35 11,4 C 12,1 C 68 % 1009,8 hPa 0,0 mm 15,8 km/h (3 Bft) W-NW 292 0 min 5,7 C 36,7 km/h (5 Bft)
14.05.2016 16:40 11,2 C 11,3 C 69 % 1009,8 hPa 0,0 mm 14,6 km/h (3 Bft) N-NW 337 0 min 5,7 C 8,3 km/h (2 Bft)
14.05.2016 16:45 11,2 C 11,1 C 70 % 1009,8 hPa 0,0 mm 13,4 km/h (3 Bft) NW 315 0 min 5,9 C 9,2 km/h (2 Bft)
14.05.2016 16:50 11,0 C 11,4 C 70 % 1009,8 hPa 0,0 mm 11,3 km/h (2 Bft) W-SW 247 0 min 5,7 C 12,5 km/h (3 Bft)
14.05.2016 16:55 10,7 C 10,9 C 71 % 1010,1 hPa 0,0 mm 11,9 km/h (2 Bft) W 270 0 min 5,7 C 11,3 km/h (2 Bft)
14.05.2016 17:00 10,6 C 10,7 C 72 % 1010,1 hPa 0,0 mm 12,2 km/h (2 Bft) W-SW 247 0 min 5,8 C 14,9 km/h (3 Bft)
14.05.2016 17:05 10,3 C 10,2 C 73 % 1010,1 hPa 0,0 mm 11,3 km/h (2 Bft) W 270 0 min 5,7 C 17,6 km/h (3 Bft)
14.05.2016 17:10 10,1 C 10,0 C 73 % 1010,1 hPa 0,0 mm 11,0 km/h (2 Bft) W-SW 247 0 min 5,5 C 6,0 km/h (2 Bft)
14.05.2016 17:15 9,8 C 9,7 C 74 % 1010,2 hPa 0,0 mm 9,2 km/h (2 Bft) NW 315 0 min 5,4 C 14,3 km/h (3 Bft)
14.05.2016 17:20 9,6 C 9,5 C 75 % 1010,2 hPa 0,0 mm 7,2 km/h (2 Bft) N-NO 22 0 min 5,4 C 5,4 km/h (1 Bft)
14.05.2016 17:25 9,4 C 9,2 C 76 % 1010,2 hPa 0,0 mm 6,3 km/h (2 Bft) NW 315 0 min 5,4 C 8,3 km/h (2 Bft)
14.05.2016 17:30 9,3 C 9,1 C 77 % 1010,2 hPa 0,0 mm 5,1 km/h (1 Bft) SW 225 0 min 5,5 C 7,5 km/h (2 Bft)
14.05.2016 17:35 9,1 C 8,8 C 77 % 1010,4 hPa 0,0 mm 4,5 km/h (1 Bft) N-NW 337 0 min 5,3 C 5,4 km/h (1 Bft)
14.05.2016 17:40 9,0 C 8,7 C 78 % 1010,4 hPa 0,0 mm 5,4 km/h (1 Bft) W-SW 247 0 min 5,4 C 5,1 km/h (1 Bft)
14.05.2016 17:45 9,1 C 8,8 C 78 % 1010,4 hPa 0,7 mm 4,8 km/h (1 Bft) NW 315 0 min 5,5 C 10,1 km/h (2 Bft)
14.05.2016 17:50 9,1 C 8,8 C 78 % 1010,4 hPa 0,0 mm 5,1 km/h (1 Bft) SW 225 0 min 5,5 C 9,2 km/h (2 Bft)
14.05.2016 17:55 9,3 C 9,0 C 79 % 1010,4 hPa 0,0 mm 3,9 km/h (1 Bft) W-SW 247 0 min 5,8 C 0,0 km/h (0 Bft)
14.05.2016 18:00 9,3 C 9,1 C 79 % 1010,4 hPa 0,0 mm 3,3 km/h (1 Bft) NO 45 0 min 5,8 C 7,2 km/h (2 Bft)
14.05.2016 18:05 9,1 C 8,9 C 79 % 1010,4 hPa 0,0 mm 5,1 km/h (1 Bft) NW 315 0 min 5,7 C 6,3 km/h (2 Bft)
14.05.2016 18:10 9,2 C 9,0 C 79 % 1010,4 hPa 0,0 mm 5,1 km/h (1 Bft) W-SW 247 0 min 5,8 C 4,8 km/h (1 Bft)
14.05.2016 18:15 9,5 C 9,3 C 80 % 1010,4 hPa 0,0 mm 2,7 km/h (1 Bft) O-SO 112 0 min 6,2 C 4,8 km/h (1 Bft)
14.05.2016 18:20 9,5 C 9,3 C 79 % 1010,4 hPa 0,0 mm 3,6 km/h (1 Bft) N-NW 337 0 min 6,0 C 6,9 km/h (2 Bft)
14.05.2016 18:25 9,4 C 9,2 C 79 % 1010,4 hPa 0,0 mm 6,6 km/h (2 Bft) NW 315 0 min 5,9 C 10,7 km/h (2 Bft)
14.05.2016 18:30 9,3 C 9,1 C 79 % 1010,4 hPa 0,0 mm 6,6 km/h (2 Bft) S 180 0 min 5,8 C 8,9 km/h (2 Bft)
14.05.2016 18:35 9,2 C 9,0 C 80 % 1010,6 hPa 0,0 mm 5,1 km/h (1 Bft) NW 315 0 min 5,9 C 5,7 km/h (1 Bft)
14.05.2016 18:40 9,0 C 8,8 C 80 % 1010,6 hPa 0,0 mm 4,8 km/h (1 Bft) NW 315 0 min 5,7 C 16,1 km/h (3 Bft)
14.05.2016 18:45 8,8 C 8,6 C 81 % 1010,6 hPa 0,0 mm 5,7 km/h (1 Bft) W 270 0 min 5,7 C 7,7 km/h (2 Bft)
14.05.2016 18:50 8,7 C 8,5 C 81 % 1010,6 hPa 0,0 mm 6,0 km/h (2 Bft) W 270 0 min 5,6 C 4,5 km/h (1 Bft)
14.05.2016 18:55 8,7 C 8,5 C 81 % 1010,6 hPa 0,0 mm 2,7 km/h (1 Bft) S-SO 157 0 min 5,6 C 0,0 km/h (0 Bft)
14.05.2016 19:00 8,7 C 8,4 C 81 % 1010,6 hPa 0,0 mm 1,8 km/h (1 Bft) SW 225 0 min 5,6 C 0,0 km/h (0 Bft)
14.05.2016 19:05 8,5 C 8,3 C 81 % 1010,6 hPa 0,0 mm 2,1 km/h (1 Bft) W 270 0 min 5,4 C 4,2 km/h (1 Bft)
14.05.2016 19:10 8,5 C 8,3 C 82 % 1010,6 hPa 0,0 mm 2,7 km/h (1 Bft) N-NW 337 0 min 5,6 C 8,3 km/h (2 Bft)
14.05.2016 19:15 8,5 C 8,3 C 82 % 1010,7 hPa 0,0 mm 3,9 km/h (1 Bft) W-NW 292 0 min 5,6 C 5,7 km/h (1 Bft)
14.05.2016 19:20 8,5 C 8,2 C 82 % 1010,7 hPa 0,0 mm 4,5 km/h (1 Bft) S-SW 202 0 min 5,6 C 5,1 km/h (1 Bft)
14.05.2016 19:25 8,3 C 8,1 C 82 % 1010,7 hPa 0,0 mm 3,6 km/h (1 Bft) W-SW 247 0 min 5,4 C 6,6 km/h (2 Bft)
14.05.2016 19:27 8,3 C 8,1 C 82 % 1010,7 hPa 0,0 mm 3,6 km/h (1 Bft) W-SW 247 0 min 5,4 C 6,6 km/h (2 Bft)
14.05.2016 19:30 8,2 C 8,0 C 82 % 1010,7 hPa 0,0 mm 3,6 km/h (1 Bft) W 270 0 min 5,3 C 5,4 km/h (1 Bft)
14.05.2016 19:35 8,2 C 7,9 C 82 % 1010,8 hPa 0,0 mm 4,5 km/h (1 Bft) W-SW 247 0 min 5,3 C 3,9 km/h (1 Bft)
14.05.2016 19:40 8,2 C 7,9 C 82 % 1010,8 hPa 0,0 mm 4,2 km/h (1 Bft) NW 315 0 min 5,3 C 3,0 km/h (1 Bft)
14.05.2016 19:45 8,1 C 7,8 C 83 % 1010,8 hPa 0,0 mm 2,1 km/h (1 Bft) W 270 0 min 5,4 C 0,0 km/h (0 Bft)
14.05.2016 19:50 8,0 C 7,8 C 83 % 1010,8 hPa 0,0 mm 2,4 km/h (1 Bft) NW 315 0 min 5,3 C 5,4 km/h (1 Bft)
14.05.2016 19:55 8,0 C 7,7 C 83 % 1010,9 hPa 0,0 mm 3,0 km/h (1 Bft) NW 315 0 min 5,3 C 0,0 km/h (0 Bft)
14.05.2016 20:00 7,9 C 7,7 C 83 % 1010,9 hPa 0,0 mm 2,7 km/h (1 Bft) SW 225 0 min 5,2 C 3,0 km/h (1 Bft)
14.05.2016 20:05 7,9 C 7,7 C 84 % 1010,9 hPa 0,0 mm 3,6 km/h (1 Bft) NW 315 0 min 5,4 C 5,1 km/h (1 Bft)
14.05.2016 20:10 7,8 C 7,6 C 84 % 1010,9 hPa 0,0 mm 4,5 km/h (1 Bft) S 180 0 min 5,3 C 6,9 km/h (2 Bft)
14.05.2016 20:15 7,8 C 7,6 C 84 % 1011,1 hPa 0,0 mm 4,5 km/h (1 Bft) W-SW 247 0 min 5,3 C 5,1 km/h (1 Bft)
14.05.2016 20:20 7,8 C 7,6 C 85 % 1011,1 hPa 0,0 mm 5,7 km/h (1 Bft) SW 225 0 min 5,4 C 5,4 km/h (1 Bft)
14.05.2016 20:25 7,8 C 7,6 C 85 % 1011,1 hPa 0,7 mm 4,2 km/h (1 Bft) W 270 0 min 5,4 C 4,5 km/h (1 Bft)
14.05.2016 20:30 7,7 C 7,5 C 85 % 1011,1 hPa 0,0 mm 2,7 km/h (1 Bft) W-SW 247 0 min 5,3 C 6,3 km/h (2 Bft)
14.05.2016 20:35 7,7 C 7,5 C 85 % 1011,2 hPa 0,0 mm 2,7 km/h (1 Bft) S 180 0 min 5,3 C 0,0 km/h (0 Bft)
14.05.2016 20:40 7,6 C 7,4 C 86 % 1011,2 hPa 0,0 mm 3,3 km/h (1 Bft) NW 315 0 min 5,4 C 0,0 km/h (0 Bft)
14.05.2016 20:45 7,6 C 7,4 C 86 % 1011,2 hPa 0,0 mm 3,0 km/h (1 Bft) S-SW 202 0 min 5,4 C 4,2 km/h (1 Bft)
14.05.2016 20:50 7,6 C 7,4 C 86 % 1011,2 hPa 0,0 mm 2,4 km/h (1 Bft) SW 225 0 min 5,4 C 4,8 km/h (1 Bft)
14.05.2016 20:55 7,6 C 7,4 C 86 % 1011,4 hPa 0,0 mm 1,5 km/h (1 Bft) W 270 0 min 5,4 C 0,0 km/h (0 Bft)
14.05.2016 21:00 7,5 C 7,3 C 86 % 1011,4 hPa 0,0 mm 0,6 km/h (0 Bft) W 270 0 min 5,3 C 0,0 km/h (0 Bft)
14.05.2016 21:05 7,5 C 7,3 C 86 % 1011,4 hPa 0,0 mm 1,8 km/h (1 Bft) W 270 0 min 5,3 C 12,8 km/h (3 Bft)
14.05.2016 21:10 7,5 C 7,3 C 86 % 1011,4 hPa 0,0 mm 3,9 km/h (1 Bft) W-SW 247 0 min 5,3 C 10,4 km/h (2 Bft)
14.05.2016 21:15 7,6 C 7,2 C 87 % 1011,6 hPa 0,0 mm 7,7 km/h (2 Bft) W 270 0 min 5,6 C 17,0 km/h (3 Bft)
14.05.2016 21:20 7,6 C 7,1 C 87 % 1011,6 hPa 0,0 mm 9,8 km/h (2 Bft) NW 315 0 min 5,6 C 22,9 km/h (4 Bft)
14.05.2016 21:25 7,5 C 6,9 C 87 % 1011,6 hPa 0,7 mm 12,8 km/h (3 Bft) NW 315 0 min 5,5 C 24,4 km/h (4 Bft)
14.05.2016 21:30 7,0 C 6,4 C 86 % 1011,6 hPa 0,7 mm 14,0 km/h (3 Bft) W-SW 247 0 min 4,8 C 11,6 km/h (2 Bft)
14.05.2016 21:35 6,9 C 6,2 C 87 % 1012,1 hPa 0,0 mm 13,4 km/h (3 Bft) W-NW 292 0 min 4,9 C 9,5 km/h (2 Bft)
14.05.2016 21:40 6,9 C 6,3 C 87 % 1012,1 hPa 0,7 mm 11,0 km/h (2 Bft) W-NW 292 0 min 4,9 C 13,4 km/h (3 Bft)
14.05.2016 21:45 6,8 C 6,3 C 87 % 1012,1 hPa 0,0 mm 9,8 km/h (2 Bft) W 270 0 min 4,8 C 12,2 km/h (2 Bft)
14.05.2016 21:50 6,8 C 6,4 C 87 % 1012,1 hPa 0,0 mm 9,2 km/h (2 Bft) SW 225 0 min 4,8 C 14,9 km/h (3 Bft)
14.05.2016 21:55 6,7 C 6,4 C 88 % 1012,5 hPa 0,7 mm 8,6 km/h (2 Bft) W-SW 247 0 min 4,9 C 6,0 km/h (2 Bft)
14.05.2016 22:00 6,7 C 6,5 C 88 % 1012,5 hPa 0,0 mm 6,9 km/h (2 Bft) W-SW 247 0 min 4,9 C 0,0 km/h (0 Bft)
14.05.2016 22:05 6,6 C 6,4 C 88 % 1012,5 hPa 0,0 mm 2,7 km/h (1 Bft) W-SW 247 0 min 4,8 C 3,0 km/h (1 Bft)
14.05.2016 22:10 6,5 C 6,4 C 87 % 1012,5 hPa 0,0 mm 1,8 km/h (1 Bft) S-SW 202 0 min 4,5 C 5,7 km/h (1 Bft)
14.05.2016 22:15 6,4 C 6,3 C 87 % 1012,5 hPa 0,7 mm 3,6 km/h (1 Bft) W 270 0 min 4,4 C 3,9 km/h (1 Bft)
14.05.2016 22:20 6,4 C 6,3 C 87 % 1012,5 hPa 0,0 mm 4,2 km/h (1 Bft) W-SW 247 0 min 4,4 C 5,1 km/h (1 Bft)
14.05.2016 22:25 6,5 C 6,3 C 88 % 1012,5 hPa 0,0 mm 3,0 km/h (1 Bft) S-SW 202 0 min 4,7 C 0,0 km/h (0 Bft)
14.05.2016 22:27 6,5 C 6,3 C 88 % 1012,5 hPa 0,0 mm 3,0 km/h (1 Bft) N-NW 337 0 min 4,7 C 13,1 km/h (3 Bft)
14.05.2016 22:28 6,5 C 6,3 C 88 % 1012,5 hPa 0,0 mm 3,0 km/h (1 Bft) N-NW 337 0 min 4,7 C 13,1 km/h (3 Bft)
14.05.2016 22:30 6,5 C 6,3 C 88 % 1012,5 hPa 0,0 mm 3,0 km/h (1 Bft) N-NW 337 0 min 4,7 C 13,1 km/h (3 Bft)
14.05.2016 22:35 6,5 C 6,3 C 88 % 1012,8 hPa 0,7 mm 4,5 km/h (1 Bft) NW 315 0 min 4,7 C 5,7 km/h (1 Bft)
14.05.2016 22:40 6,4 C 6,3 C 88 % 1012,8 hPa 0,0 mm 6,0 km/h (2 Bft) W-NW 292 0 min 4,6 C 9,5 km/h (2 Bft)
14.05.2016 22:45 6,3 C 6,0 C 88 % 1012,8 hPa 0,0 mm 6,9 km/h (2 Bft) W-SW 247 0 min 4,5 C 6,0 km/h (2 Bft)
14.05.2016 22:50 6,2 C 5,9 C 88 % 1012,8 hPa 0,0 mm 6,9 km/h (2 Bft) W 270 0 min 4,4 C 6,0 km/h (2 Bft)
14.05.2016 22:55 5,8 C 5,5 C 88 % 1013,5 hPa 0,0 mm 7,5 km/h (2 Bft) W 270 0 min 4,0 C 22,4 km/h (4 Bft)
14.05.2016 23:00 5,7 C 5,2 C 87 % 1013,5 hPa 0,7 mm 9,2 km/h (2 Bft) W 270 0 min 3,7 C 27,4 km/h (4 Bft)
14.05.2016 23:05 5,5 C 4,9 C 86 % 1013,5 hPa 0,0 mm 9,2 km/h (2 Bft) W-NW 292 0 min 3,3 C 6,6 km/h (2 Bft)
14.05.2016 23:10 5,4 C 5,0 C 86 % 1013,5 hPa 0,0 mm 7,2 km/h (2 Bft) W-SW 247 0 min 3,3 C 4,5 km/h (1 Bft)
14.05.2016 23:15 5,4 C 5,1 C 86 % 1013,6 hPa 0,0 mm 4,2 km/h (1 Bft) W-SW 247 0 min 3,3 C 4,8 km/h (1 Bft)
14.05.2016 23:20 5,4 C 5,1 C 86 % 1013,6 hPa 0,0 mm 3,3 km/h (1 Bft) W 270 0 min 3,3 C 0,0 km/h (0 Bft)
14.05.2016 23:25 5,2 C 5,0 C 86 % 1013,6 hPa 0,7 mm 3,0 km/h (1 Bft) S-SW 202 0 min 3,1 C 7,2 km/h (2 Bft)
14.05.2016 23:30 5,1 C 4,9 C 86 % 1013,6 hPa 0,0 mm 2,7 km/h (1 Bft) S 180 0 min 3,0 C 0,0 km/h (0 Bft)
14.05.2016 23:35 5,0 C 4,7 C 86 % 1013,7 hPa 0,0 mm 4,2 km/h (1 Bft) S 180 0 min 2,9 C 6,9 km/h (2 Bft)
14.05.2016 23:40 4,9 C 4,7 C 86 % 1013,7 hPa 0,0 mm 5,4 km/h (1 Bft) SW 225 0 min 2,8 C 4,8 km/h (1 Bft)
14.05.2016 23:45 4,9 C 4,5 C 87 % 1013,7 hPa 0,0 mm 7,2 km/h (2 Bft) W 270 0 min 2,9 C 7,5 km/h (2 Bft)
14.05.2016 23:50 4,9 C 4,4 C 87 % 1013,7 hPa 0,0 mm 8,6 km/h (2 Bft) S-SW 202 0 min 2,9 C 12,8 km/h (3 Bft)
14.05.2016 23:55 4,8 C 4,2 C 87 % 1013,9 hPa 0,0 mm 9,5 km/h (2 Bft) S-SO 157 0 min 2,8 C 5,4 km/h (1 Bft)
_ Min-Zeit 23:55 23:55 16:10 00:10 - 11:40 - - - 23:40 23:30
Minimum _ 4,8 C 4,2 C 62 % 1004,2 hPa - 0,0 km/h (0 Bft) - - - 2,8 C 0,0 km/h (0 Bft)
_ Max-Zeit 15:20 15:25 08:35 23:55 23:25 16:35 - - 15:55 14:05 16:35
Maximum _ 16,8 C 21,4 C 91 % 1013,9 hPa 0,7 mm 15,8 km/h
W-NW (3 Bft)
- - 5 min 12,8 C 36,7 km/h
W-NW (5 Bft)
Durchschnitt _ 9,4 C 9,7 C 85 % 1008,2 hPa #17,2 mm 3,7 km/h (1 Bft) W-SW - #2:25 h 6,9 C 5,2 km/h (1 Bft)